Location: Unspecified
(0.0000°N, 0.0000°E)
Time: 00:04:27
(UTC+01:00)

Sapphire - Visible Passes

Search period start: 09 February 2016 00:00
Search period end: 19 February 2016 00:00
Orbit: 785 x 797 km, 67.1° (Epoch: 07 February)

Date Brightness Start Highest point End Pass type
(mag) Time Alt. Az. Time Alt. Az. Time Alt. Az.
15 Feb ? 21:05:06 10° NNW 21:06:21 17° N 21:06:21 17° N visible
16 Feb ? 20:34:46 10° N 20:39:55 45° ENE 20:40:27 44° E visible
16 Feb ? 22:21:26 10° W 22:21:36 10° W 22:21:36 10° W visible
17 Feb ? 20:04:41 10° N 20:09:20 29° ENE 20:13:59 10° SE visible
17 Feb ? 21:48:52 10° WNW 21:52:28 18° WSW 21:56:05 10° SSW visible
18 Feb ? 19:34:58 10° NNE 19:38:45 19° ENE 19:42:31 10° ESE visible
18 Feb ? 21:17:20 10° NW 21:21:53 28° WSW 21:26:26 10° SSW visible
